Location: *
(43.0369°N, 21.7468°E)
Time: 18:37:40
(UTC+00:00)

Daily predictions for brighter satellites

Satellite Brightness Start Highest point End
(mag) Time Altitude Azimuth Time Altitude Azimuth Time Altitude Azimuth
Unknown 3.8 16:09:34 10° WSW 16:13:42 77° NW 16:17:52 10° NE
Cosmos 1726 Rocket 4.3 16:10:24 10° SSE 16:14:19 32° E 16:18:13 10° NNE
ASTEX 1 4.0 16:10:03 10° NNE 16:14:32 34° E 16:19:01 10° SSE
Unknown 3.8 16:12:53 10° WSW 16:17:01 74° NNW 16:21:10 10° NE
Unknown 3.8 16:13:26 10° WSW 16:17:35 75° NNW 16:21:44 10° NE
Okean-O 2.7 16:13:54 10° SSE 16:18:20 88° ENE 16:22:47 10° NNW
Unknown 3.8 16:14:28 10° WSW 16:18:36 74° NW 16:22:46 10° NE
Cosmos 968 Rocket 3.7 16:15:03 10° NNW 16:20:14 53° ENE 16:25:22 10° SE
Unknown 3.8 16:17:41 10° WSW 16:21:49 73° NNW 16:25:58 10° NE
Cosmos 2058 Rocket 4.0 16:20:26 10° SE 16:24:05 27° E 16:27:44 10° NNE
Cosmos 1242 Rocket 3.9 16:21:40 10° NNE 16:24:31 21° ENE 16:27:20 10° ESE
Cosmos 1821 Rocket 4.0 16:18:29 10° N 16:24:31 59° ENE 16:30:34 10° SSE
Ariane Rocket 4.3 16:21:04 10° ESE 16:24:44 20° ENE 16:28:26 10° NNE
Unknown 3.9 16:21:07 10° WSW 16:25:15 67° NNW 16:29:23 10° NE
Unknown 4.0 16:22:47 10° WSW 16:26:54 65° NNW 16:31:02 10° NE
Cosmos 1939 Rocket 4.3 16:24:43 10° ESE 16:27:24 18° ENE 16:30:07 10° NNE
Shenzhou-11 Module 2.3 16:24:53 10° WSW 16:27:34 46° SSE 16:30:03 11° E
Cosmos 2228 3.3 16:23:34 10° SSE 16:27:46 48° E 16:31:59 10° NNE
Unknown 4.0 16:24:30 10° WSW 16:28:35 63° NNW 16:32:43 10° NE
Cosmos 1844 Rocket 2.7 16:24:04 10° SSW 16:29:42 71° ESE 16:35:20 10° NNE
Unknown 4.0 16:26:09 10° WSW 16:30:16 61° NNW 16:34:23 10° NE
Nadezhda 3 Rocket 4.0 16:24:05 10° S 16:30:18 73° E 16:36:37 10° NNE
Cosmos 1992 Rocket 4.0 16:27:55 10° S 16:33:07 71° ESE 16:38:20 10° NNE
Lacrosse 5 rocket 1.5 16:29:48 10° NW 16:33:27 46° NE 16:37:16 10° ESE
Unknown 4.1 16:29:28 10° WSW 16:33:33 58° NNW 16:37:39 10° NE
Cosmos 1503 Rocket 3.9 16:29:44 10° NNW 16:34:55 69° ENE 16:40:03 10° SSE
Unknown 4.2 16:31:14 10° WSW 16:35:19 56° NNW 16:39:24 10° NE
Unknown 4.2 16:32:52 10° WSW 16:36:56 55° NNW 16:41:01 10° NE
Unknown 4.2 16:34:28 10° WSW 16:38:32 55° NNW 16:42:37 10° NE
Unknown 4.3 16:35:04 10° WSW 16:39:07 53° NNW 16:43:12 10° NE
Cosmos 921 Rocket 3.4 16:34:58 10° S 16:39:17 46° ESE 16:43:34 10° NNE
Cosmos 1934 Rocket 4.2 16:33:18 10° N 16:39:26 50° ENE 16:45:34 10° SSE
Meteor 1-21 Rocket 4.3 16:33:53 10° N 16:39:49 85° ENE 16:45:36 10° S
Unknown 4.2 16:37:39 10° WSW 16:41:43 55° NNW 16:45:48 10° NE
CZ-4 R/B 4.4 16:37:47 10° SSE 16:41:53 70° ENE 16:46:00 10° N
Cosmos 1908 4.3 16:40:50 10° SE 16:44:01 24° E 16:47:13 10° NE
COSMO-SKYMED 1 2.5 16:40:12 10° NNE 16:44:34 82° ESE 16:48:55 10° S
Unknown 4.3 16:41:02 10° WSW 16:45:05 52° NNW 16:49:09 10° NE
Cosmos 2278 Rocket 3.2 16:41:32 10° SSE 16:45:53 23° E 16:50:15 10° NE
CZ-4 R/B 1.4 16:41:50 10° SSE 16:45:57 75° ENE 16:50:09 10° N
YAOGAN 6 2.5 16:42:58 10° SSE 16:46:38 71° ENE 16:50:17 10° N
Unknown 4.3 16:42:40 10° WSW 16:46:42 51° NNW 16:50:45 10° NE
Cosmos 1470 4.3 16:42:58 10° SSW 16:46:45 41° WNW 16:50:33 10° N
Cosmos 1328 4.3 16:44:25 10° N 16:48:08 36° ENE 16:51:49 10° SE
H-2A R/B 3.9 16:47:53 12° ENE 16:48:34 12° ENE 16:50:35 10° NE
Unknown 4.5 16:44:38 10° WSW 16:48:39 46° NNW 16:52:40 10° NE
Cosmos 1844 3.7 16:43:20 10° SSW 16:49:01 80° ESE 16:54:49 10° NNE
Unknown 4.4 16:46:01 10° WSW 16:50:03 49° NNW 16:53:59 11° NE
Cosmos 2084 3.6 16:45:54 10° SW 16:50:27 83° NW 16:54:57 10° NE
Unknown 4.4 16:47:44 10° WSW 16:51:44 47° NNW 16:55:37 11° NE
Lacrosse 5 3.6 16:50:05 10° NNW 16:53:45 19° NNE 16:56:44 12° NE
USA 116 3.1 16:52:16 10° NNE 16:55:23 63° ESE 16:58:37 10° S
Cosmos 1825 Rocket 4.1 16:51:54 10° NNW 16:56:13 61° W 17:00:32 10° S
Cosmos 1953 Rocket 3.5 16:53:02 10° N 16:57:26 89° W 17:01:47 10° S
ATLAS 5 CENTAUR R/B 2.9 16:56:22 10° WSW 17:00:23 40° NW 17:04:53 10° NNE
Cosmos 292 Rocket 3.8 16:59:18 10° S 17:03:54 52° ESE 17:08:31 10° NNE
BREEZE-M DEB (TANK) 4.0 17:04:17 10° NW 17:08:47 63° NNE 17:17:20 19° ESE
CSL-04 Rocket 3.9 17:09:01 10° S 17:14:33 76° WSW 17:20:06 10° NNW
Unknown 3.7 17:13:55 10° NW 17:16:06 29° NNE 17:16:06 29° NNE
NOAA 11 4.1 17:12:02 10° SSE 17:17:27 68° ENE 17:22:51 10° N
Envisat 4.5 17:16:07 10° SSW 17:20:49 39° W 17:25:35 10° NNW
Cosmos 489 Rocket 4.3 17:16:35 10° SSW 17:22:47 77° ESE 17:29:00 10° NNE
CZ-2D R/B 3.1 17:19:17 10° SSE 17:23:06 83° ENE 17:26:59 10° N
SL-4 R/B 2.2 17:20:56 10° WNW 17:24:40 55° SW 17:26:07 31° SSE
EO 1 Delta rocket 3.9 17:22:17 10° S 17:26:58 76° W 17:31:41 10° NNW
Cosmos 1833 Rocket 3.1 17:27:22 10° NNW 17:32:40 41° ENE 17:33:53 36° E
ARGOS 4.2 17:34:15 26° NE 17:34:15 26° NE 17:38:12 10° N
YAOGAN 1 3.9 17:32:34 10° SSW 17:36:38 40° W 17:40:44 10° NNW
Cosmos 1356 4.4 17:33:24 10° SSW 17:36:43 47° WNW 17:40:04 10° N
Cosmos 1726 3.4 17:36:32 10° SSW 17:40:01 41° WNW 17:43:30 10° N
Cosmos 1703 3.9 17:37:59 10° NNW 17:41:52 55° W 17:45:41 10° S
ADEOS Rocket 3.8 17:35:43 10° NNE 17:42:55 41° E 17:49:41 10° SSE
Cosmos 1461 4.2 17:43:07 10° NNW 17:45:38 26° NNE 17:45:38 26° NNE
CZ-4C R/B 4.5 17:40:27 10° NW 17:47:07 35° WSW 17:54:25 10° S
COSMOS 2406 3.4 17:42:46 10° NNW 17:48:33 74° WSW 17:52:46 19° SSE
IRS-1A Rocket 4.2 17:44:17 10° SSE 17:49:48 86° WSW 17:55:20 10° NNW
Cosmos 2082 Rocket 2.7 17:44:51 10° NNW 17:50:13 40° ENE 17:50:13 40° ENE
MOS 1 4.1 17:47:45 26° SSE 17:51:02 76° ENE 17:56:42 10° N
SJ-11-01 4.1 18:01:36 80° ENE 18:01:37 80° ENE 18:06:20 10° N
Cosmos 1939 Rocket 4.2 17:58:21 10° SSW 18:02:02 38° W 18:05:47 10° NNW
Ariane Rocket 3.6 17:58:18 10° S 18:03:17 54° W 18:08:18 10° NNW
USA 238 DEB 3.6 17:57:50 10° SSW 18:04:21 61° ESE 18:05:37 52° ENE
OAO 2 Rocket 4.5 17:59:47 10° WSW 18:04:29 32° S 18:04:44 32° S
USA 238 3.6 17:57:57 10° SSW 18:04:29 60° ESE 18:05:38 53° E
OAO 3 Rocket 4.4 18:03:33 10° WSW 18:07:26 32° SSW 18:07:26 32° SSW
SPOT 3 Rocket 3.7 18:09:12 58° NNE 18:09:12 58° NNE 18:13:37 10° N
Cosmos 1459 Rocket 3.9 18:05:15 10° N 18:11:19 63° ENE 18:11:19 63° ENE
Lacrosse 5 rocket 3.2 18:09:19 10° WNW 18:12:24 23° SW 18:13:02 22° SW
USA 234 3.5 18:13:46 48° SSE 18:13:46 48° SSE 18:19:21 10° SSW
Cosmos 1727 Rocket 4.2 18:08:37 10° SSW 18:14:46 70° W 18:20:57 10° N
Resurs 01 Rocket 4.2 18:21:44 11° N 18:21:44 11° N 18:21:54 10° N
Cosmos 1802 Rocket 4.2 18:16:22 10° N 18:21:55 58° NE 18:21:55 58° NE
H-2A R/B 2.7 18:28:31 50° N 18:28:31 50° N 18:32:27 10° N
Cosmos 2278 Rocket 2.9 18:24:01 10° SW 18:29:33 53° WNW 18:34:56 11° NNE
NOSS 3-2 (A) 4.3 18:25:46 10° SSW 18:28:51 35° SSW 18:28:51 35° SSW
Cosmos 2173 Rocket 3.9 18:25:50 10° N 18:31:57 85° N 18:31:57 85° N
Lacrosse 5 3.1 18:32:49 10° NW 18:35:56 34° NNW 18:35:56 34° NNW
NOSS 3-3 (A) 4.4 18:30:33 10° NNW 18:38:04 70° NE 18:38:16 69° ENE
NOSS 3-3 (C) 4.4 18:30:39 10° NNW 18:38:10 69° NE 18:38:20 69° ENE
CZ-2C R/B 4.4 18:45:55 37° N 18:45:55 37° N 18:49:20 10° N
Cosmos 2100 Rocket 4.3 18:43:29 10° NNW 18:49:36 62° W 18:49:41 62° W
Cosmos 1833 Rocket 4.3 19:11:36 10° NW 19:15:36 29° W 19:15:36 29° W
ADEOS Rocket 4.4 19:21:06 10° N 19:28:22 45° WNW 19:35:15 10° SW
Cosmos 2082 Rocket 4.2 19:29:11 10° NW 19:32:05 25° WNW 19:32:05 25° WNW
